sat.trackr.live / text

‹ back to catalog

SHIYAN-6 02 (SY-6 02)

NORAD 45859 · 2020-043A

PAYLOAD ACTIVE UNKNOWN

§ Identity

Operator
Country
PRC
Launch date
2020-07-04
Launch site
JSC
Launch vehicle
Mass (kg)
RCS (m²)

External: N2YO · Heavens-Above · Gunter

§ Orbital elements

Epoch: 2026-09-20T05:22:35.944032Z

Period
98.56 min
Inclination
98.1871°
Eccentricity
0.0127480
Mean motion
14.60987016 rev/d
Perigee alt
599.9 km
Apogee alt
780.1 km
Semi-major
7,068.1 km
B*
3.2347e-5
RAAN
273.5251°
Arg perigee
289.7874°
Mean anomaly
68.9618°
Rev number
33,073

§ Raw data

SHIYAN-6 02 (SY-6 02)1 45859U 20043A   26263.22402713  .00000122  00000+0  32347-4 0  99972 45859  98.1871 273.5251 0127480 289.7874  68.9618 14.60987016330735

JSON: /api/v1/satellites/45859 · /tle

For live sub-satellite position, see the globe view (requires WebGL).

§ Visibility from observer

Set your observer location to see the next 7 days of passes ≥ 10°. The values pass through the URL so the page stays shareable.

No JS? Fill the form by hand. The geolocation button needs JavaScript.